Lid_Strength_Index
9 9 9 9 10 10 10 10 10 9 9 8 7 6 7 8 7 7 8 8 8 8 9 9 9 9 8 8 8 8 9 10 12 13 12 12 12 12 13 12 13 13 14
10 10 10 10 10 11 12 12 11 11 10 9 9 8 8 8 7 7 8 8 9 9 9 10 10 10 10 9 10 10 11 10 12 15 14 14 14 14 13 13 13 14 14
11 11 12 12 12 13 13 13 13 13 12 10 10 9 9 8 7 7 8 9 9 10 9 10 10 10 11 11 10 11 11 10 11 14 15 14 15 15 15 15 15 14 14
12 14 15 15 15 15 15 15 15 14 13 12 11 11 10 9 8 8 8 8 9 10 9 9 10 11 12 11 11 11 11 12 13 14 14 14 14 15 14 15 15 15 14
16 17 18 17 17 17 17 17 16 15 14 13 12 11 10 8 8 7 7 8 8 10 10 10 9 11 10 9 11 11 12 13 14 14 14 14 14 14 14 14 14 14 15
18 19 19 18 19 19 19 19 18 17 15 13 13 12 11 9 7 7 7 8 8 9 10 10 9 10 10 9 9 9 10 12 13 13 13 14 14 14 13 14 13 14 15
19 19 19 19 20 20 20 19 18 17 15 14 13 12 12 10 7 7 7 7 8 8 10 10 10 9 9 9 10 9 10 9 10 11 13 13 13 13 13 14 14 14 15
19 19 19 21 21 21 21 19 18 16 15 14 13 13 12 11 9 8 8 7 8 8 9 10 10 10 10 9 10 11 11 11 11 12 12 12 12 12 12 13 13 14 14
20 20 20 21 21 20 20 19 17 16 15 14 13 13 13 12 10 8 8 9 8 8 8 9 10 10 9 9 10 11 11 12 10 10 10 10 10 11 11 12 14 14 15
20 20 20 20 20 20 19 18 17 16 15 15 14 13 13 13 11 10 9 9 10 10 9 9 9 10 9 9 10 11 11 11 12 12 12 12 12 12 12 13 13 13 14
20 19 20 20 19 18 18 17 17 16 16 15 15 14 13 13 13 11 10 10 10 11 10 11 10 9 9 9 9 10 10 11 11 11 12 12 13 13 13 13 13 14 14
19 19 20 19 18 18 18 17 17 16 16 15 15 15 14 13 13 12 11 10 9 10 11 10 10 9 9 9 9 8 9 10 11 11 12 13 13 14 14 14 14 15 15
21 21 20 19 19 18 18 18 17 17 16 16 16 16 15 14 14 12 11 11 10 10 10 10 10 9 9 10 9 8 10 10 10 11 12 13 14 14 13 14 14 15 17
21 20 19 19 19 18 17 17 17 17 17 17 17 17 16 15 14 13 13 12 11 10 10 11 10 10 9 9 10 9 10 10 10 11 12 13 13 13 13 14 14 15 14
20 20 19 18 19 18 18 18 18 17 16 17 16 16 17 16 14 13 13 12 11 10 10 11 11 11 11 11 10 11 10 10 10 10 11 12 13 13 14 14 14 14 15
19 19 19 19 18 18 18 18 16 16 16 16 14 15 15 13 12 12 12 11 10 10 12 13 13 13 13 12 11 11 10 11 11 10 11 11 12 13 14 14 14 14 15
20 19 19 20 18 19 19 19 20 18 16 16 15 15 14 13 13 13 13 12 12 13 15 15 15 15 14 13 12 12 11 11 10 10 10 11 12 13 13 14 14 14 15
23 23 20 19 19 19 19 19 20 20 20 19 17 16 15 14 14 13 14 16 18 17 18 18 17 16 15 15 14 14 12 11 10 10 10 11 11 12 13 14 14 14 15
22 20 19 18 19 20 21 20 20 20 20 20 19 18 17 15 14 15 15 19 20 20 19 19 19 18 18 17 16 15 14 12 12 11 10 10 11 12 12 13 15 15 15
23 23 22 20 19 19 19 20 20 20 20 20 20 20 19 19 19 19 19 20 20 21 20 20 20 20 19 18 17 16 15 13 12 11 11 10 10 11 12 12 14 15 15
20 20 23 21 21 20 20 20 21 21 22 21 21 19 17 19 20 20 20 20 20 21 21 21 20 20 20 19 18 17 16 15 13 12 12 10 11 11 12 12 13 14 14
21 20 20 22 21 20 21 20 21 21 22 22 21 20 18 21 20 20 20 20 20 20 20 21 21 20 20 20 20 19 18 17 15 15 14 12 12 10 11 12 13 13 14
22 21 21 21 21 22 22 22 21 21 21 21 21 21 21 21 21 21 20 20 20 20 21 22 22 23 21 21 20 19 19 18 17 16 15 14 11 11 11 11 14 13 13
22 22 21 21 21 21 21 21 21 22 22 22 22 21 21 21 21 21 21 20 21 21 21 22 23 23 23 23 22 20 19 18 17 17 16 16 14 10 11 12 13 13 13
22 22 22 21 22 22 22 22 22 22 21 21 21 21 21 21 21 21 21 21 23 23 23 24 23 23 23 24 24 23 22 20 20 18 17 15 15 13 10 12 13 14 14
24 24 23 23 23 23 23 23 22 22 22 21 21 21 21 21 21 21 22 23 23 23 23 22 22 23 23 23 23 22 22 19 19 18 17 15 16 14 10 12 13 13 14